Theta_e
289 290 290 290 291 293 293 294 295 296 297 299 302 305 307 310 313 312 310 310 308 306 305 304 303 303 302 301 302 302 301 303 302 294 292 292 287 285 285 285 285 284 284
287 289 289 290 290 291 291 292 294 295 296 298 299 301 302 304 305 306 303 303 302 300 300 300 298 299 298 299 298 296 296 296 299 292 288 286 284 283 282 281 283 284 283
285 288 288 288 289 289 290 291 292 293 294 295 297 297 297 298 299 298 297 296 295 294 295 295 295 296 294 294 293 291 290 289 289 288 282 282 282 281 280 280 281 280 282
284 287 287 287 288 288 289 289 290 291 292 293 294 295 295 295 295 294 293 292 292 291 291 291 291 292 291 290 289 287 287 285 284 283 282 281 279 280 279 277 277 277 278
283 285 286 287 287 287 288 288 289 289 290 291 292 292 292 293 293 292 292 291 290 289 288 288 288 287 288 288 287 285 284 283 282 282 280 279 277 278 278 278 276 272 271
281 285 286 286 286 286 286 287 287 287 288 289 289 289 290 290 291 291 290 289 288 287 286 286 286 287 288 289 288 288 285 282 281 280 279 278 279 279 278 275 273 268 269
282 285 285 285 284 285 285 286 285 285 286 286 287 288 288 288 290 289 288 287 286 286 285 285 283 283 283 283 286 286 285 287 285 281 279 279 279 279 278 273 273 274 273
284 284 284 282 281 283 284 284 284 285 284 285 285 286 287 287 288 288 286 285 284 284 283 282 282 281 282 282 282 281 281 282 282 282 281 281 281 280 279 279 277 270 268
281 281 281 281 281 281 282 282 282 284 284 284 284 284 284 285 287 287 284 283 283 281 282 282 282 282 285 284 282 281 281 282 285 285 285 284 284 283 282 277 270 266 265
280 281 281 281 280 280 280 280 280 281 282 283 282 282 280 283 287 286 283 282 281 281 283 283 284 283 285 284 280 280 278 279 280 280 280 280 280 280 281 279 276 266 263
278 278 278 279 280 279 279 278 279 279 278 277 277 278 279 281 284 286 285 282 282 280 281 281 282 286 285 285 283 279 278 280 280 279 278 279 277 275 274 275 276 274 264
275 275 274 274 278 278 276 275 275 276 275 275 276 275 275 277 283 286 285 284 284 279 280 281 282 286 285 285 281 284 282 280 279 278 277 276 268 267 267 268 270 270 271
272 271 274 275 274 275 274 273 273 272 272 275 276 277 279 275 276 286 286 285 284 278 278 283 285 284 284 284 284 283 280 279 278 276 275 274 266 264 263 263 263 263 263
272 271 274 276 276 271 275 275 273 272 272 273 273 276 277 278 273 273 277 279 282 279 282 282 281 279 280 281 280 279 278 278 277 274 271 263 262 261 260 259 261 259 261
273 273 273 275 276 274 274 275 275 274 275 272 272 272 271 271 274 278 277 274 274 276 269 272 272 265 269 274 275 277 278 277 275 264 261 261 261 261 260 256 257 256 259
275 274 275 274 273 273 273 274 280 281 282 283 282 276 273 278 282 283 283 283 282 281 266 269 267 259 263 270 272 274 276 276 276 263 260 261 262 261 260 259 259 257 258
278 277 275 275 275 273 273 274 275 276 284 284 285 285 283 279 283 284 284 284 283 282 265 258 262 262 263 263 265 272 272 274 268 267 263 262 260 259 261 260 260 258 258
279 278 277 276 275 275 274 274 274 274 276 278 283 284 285 284 283 284 284 284 278 281 277 264 266 265 265 265 263 264 261 266 273 271 263 264 264 262 262 263 259 259 258
279 280 278 278 277 277 276 274 273 273 274 268 272 276 281 285 285 285 285 281 279 278 279 277 272 267 266 266 266 267 268 269 271 274 270 265 264 263 261 261 262 260 260
279 280 279 279 278 276 276 275 274 274 274 274 271 271 270 277 280 281 282 282 280 278 276 278 270 269 269 268 268 268 268 266 265 267 267 265 265 265 265 264 263 263 263
279 279 279 279 278 278 278 277 277 276 275 275 275 276 277 276 278 279 280 281 281 279 275 273 272 269 269 269 269 269 269 269 268 269 268 268 267 267 266 266 265 262 263
279 279 278 278 279 278 278 279 278 277 277 276 277 276 281 275 276 277 278 279 279 279 277 275 273 272 272 271 270 270 270 270 269 269 269 269 269 268 266 264 264 262 262
278 279 279 278 279 279 279 279 279 279 278 278 278 276 276 277 276 276 277 278 278 278 277 276 275 274 272 272 272 272 272 272 272 272 271 271 270 269 268 267 266 266 266
277 277 277 277 278 279 280 279 279 280 279 279 280 279 277 277 277 277 277 278 277 277 276 275 275 275 273 272 273 273 274 275 275 274 273 272 271 270 270 270 270 269 269
276 276 277 277 278 278 279 280 280 280 280 280 280 280 280 278 278 279 279 278 277 276 275 275 275 275 275 273 273 272 273 275 275 274 273 273 273 272 272 272 271 269 268
275 274 275 274 277 277 278 280 279 280 280 281 281 281 281 280 278 279 279 280 278 277 277 276 275 274 274 274 273 273 273 274 273 273 273 273 273 273 273 272 271 270 269
Wind_Speed
6 5 6 6 7 7 6 6 6 5 5 5 6 5 4 2 1 4 5 4 5 4 4 5 6 4 4 5 3 4 3 2 2 3 3 4 5 4 5 5 5 6 6
6 6 6 6 7 6 6 6 6 6 5 5 5 4 4 4 5 5 6 5 6 5 5 5 7 5 5 4 5 5 3 3 2 4 2 3 5 4 4 4 4 4 6
5 6 6 7 7 7 7 6 5 6 5 6 5 5 6 6 7 7 8 8 9 8 8 7 6 6 4 4 4 5 4 4 3 4 3 3 3 4 3 3 3 4 5
5 4 6 6 6 6 6 6 6 6 6 6 7 7 7 7 7 8 8 9 9 9 8 7 7 5 5 5 5 4 5 6 5 6 4 3 3 2 3 2 3 3 4
4 4 5 5 5 5 6 6 6 7 6 7 7 7 7 8 5 7 7 8 8 9 10 10 9 11 14 10 4 4 5 6 5 5 3 2 3 3 4 3 2 2 2
4 4 5 5 5 6 6 7 6 7 8 7 8 8 8 6 12 10 8 8 8 8 10 8 8 11 16 19 19 16 9 4 4 3 1 4 5 2 2 2 3 4 3
2 2 2 3 4 5 4 5 7 7 7 8 7 7 8 8 11 13 12 7 8 7 8 7 7 5 7 9 17 17 16 20 14 4 7 3 3 4 3 3 1 2 0
1 1 2 3 3 2 4 5 6 5 6 5 6 6 7 8 13 14 14 8 8 7 6 6 7 5 5 7 8 11 9 8 8 7 8 7 5 4 2 1 1 0 2
2 1 0 1 3 3 4 5 4 4 4 4 4 6 6 6 11 12 11 7 8 6 5 5 6 7 9 10 8 11 11 10 12 15 13 10 11 11 9 2 4 4 3
4 2 1 2 3 4 4 4 3 3 3 4 5 4 4 5 10 11 9 5 7 5 5 5 8 6 8 9 6 8 10 7 5 5 5 6 7 9 12 6 3 3 1
5 4 2 2 4 4 3 2 3 4 5 4 4 4 4 4 6 10 9 3 5 5 4 4 3 8 8 9 9 5 5 8 7 5 4 4 3 5 4 5 6 3 2
4 4 4 3 2 2 5 3 3 4 4 3 4 3 3 3 4 7 9 8 10 6 6 4 4 10 10 9 6 13 12 8 4 4 4 3 2 3 3 3 5 5 5
5 5 4 3 2 2 3 4 3 4 3 4 3 4 3 2 3 5 9 10 11 5 3 7 10 10 11 9 11 11 7 5 5 4 4 2 1 0 1 2 3 3 3
6 5 4 5 4 2 2 2 2 4 4 4 4 5 4 3 1 1 1 4 9 6 9 6 6 6 7 7 6 6 4 4 4 3 3 0 1 2 2 1 2 2 3
5 5 7 7 7 5 4 5 5 4 4 4 5 4 5 4 5 7 7 4 4 6 6 4 2 2 2 4 4 4 4 4 3 3 2 2 1 1 2 2 2 2 3
8 7 7 6 6 5 6 5 11 13 13 13 10 7 4 5 9 14 13 13 13 14 3 3 4 3 4 6 5 4 5 7 5 3 3 3 3 3 2 1 2 2 3
11 8 6 6 5 6 5 6 7 6 14 14 16 14 14 9 12 14 15 15 15 15 3 3 4 4 4 5 4 6 5 6 4 4 3 3 4 3 3 2 2 2 1
12 10 9 9 8 7 7 7 5 6 7 7 15 15 15 15 13 13 14 13 6 12 7 5 6 6 6 6 6 5 3 2 5 4 3 4 4 3 2 3 3 3 2
11 10 10 8 8 8 7 6 6 6 7 4 1 5 8 17 16 15 18 9 10 10 10 9 8 6 6 6 6 6 6 5 5 7 5 4 4 3 3 3 3 4 4
11 13 11 9 7 8 8 8 7 8 8 7 6 7 4 5 10 10 10 10 10 10 7 8 6 7 7 6 6 6 6 5 4 5 4 4 4 4 4 4 5 4 4
7 8 12 8 8 8 8 9 8 8 8 9 10 8 15 9 10 10 11 12 12 10 10 10 8 7 7 7 7 8 8 8 8 7 7 6 6 6 4 4 4 3 4
7 8 9 11 9 10 11 10 10 10 10 10 8 7 20 10 10 10 10 11 11 10 8 8 8 8 9 9 9 9 9 9 8 8 7 7 7 7 5 4 4 3 3
6 7 8 7 8 9 9 9 9 10 10 10 9 6 9 10 10 10 10 10 10 10 9 9 9 8 8 9 9 10 11 12 11 10 10 9 8 8 7 6 5 4 5
5 5 6 6 6 7 8 8 9 11 10 9 9 8 8 9 10 11 11 9 8 8 8 8 9 11 9 9 9 10 10 8 9 11 13 10 10 10 8 7 8 8 7
6 6 7 7 7 8 7 8 8 8 9 9 9 9 9 9 10 10 9 9 8 8 10 10 9 12 15 15 14 15 14 16 13 12 10 11 12 14 11 9 8 6 5
6 6 5 4 5 5 6 7 7 7 8 8 8 8 8 8 9 8 9 9 8 9 10 8 10 14 14 13 16 16 16 17 14 16 11 10 10 9 9 11 12 8 9
Wind_Direction
341 345 351 349 346 347 352 344 342 337 339 342 329 321 332 352 107 113 86 77 90 78 73 88 84 99 97 73 45 65 45 24 111 85 70 38 49 22 28 26 19 16 1
335 347 357 4 360 356 358 344 344 358 347 349 346 4 14 36 42 76 90 67 80 72 68 71 89 65 35 84 112 89 80 31 96 117 80 46 64 12 34 39 16 9 5
346 355 3 10 8 2 358 351 2 17 14 13 24 42 38 46 66 63 72 72 72 62 57 59 56 79 72 50 65 90 83 63 48 105 110 27 66 40 345 5 359 0 13
350 355 21 13 9 1 0 4 19 22 33 32 35 47 51 58 64 70 78 82 77 71 63 56 53 58 76 85 69 64 83 83 81 87 81 71 30 14 50 12 343 348 2
353 5 21 17 17 14 19 14 29 33 31 42 50 52 56 58 58 80 86 90 92 86 73 67 64 71 66 61 78 61 79 90 72 74 71 94 32 27 21 337 307 317 316
16 11 16 26 27 23 22 19 33 37 34 43 49 55 57 61 68 76 88 93 91 92 93 79 66 72 74 76 73 64 66 97 111 97 97 78 65 35 358 358 328 22 351
20 31 42 50 47 36 33 39 39 41 37 38 45 56 60 66 81 86 78 80 88 89 89 93 83 60 70 79 77 74 65 66 71 84 97 85 77 12 336 355 339 351 323
114 42 28 61 78 71 67 57 52 48 50 48 48 58 74 75 86 87 80 78 77 78 86 97 100 92 89 96 95 77 68 65 67 71 77 76 66 48 21 1 13 183 343
250 192 118 84 74 66 68 70 58 67 72 66 55 66 77 83 97 99 94 85 87 70 75 81 103 107 119 115 103 105 96 81 76 79 76 72 55 38 36 25 32 62 354
211 235 174 122 99 81 73 61 43 58 63 60 67 62 82 98 102 104 101 106 104 96 81 91 103 113 117 115 111 118 109 109 89 83 75 51 47 33 36 29 7 81 61
167 156 171 173 147 141 118 84 89 81 78 68 65 28 51 75 104 110 115 91 116 107 101 94 79 126 129 117 106 109 128 136 121 110 100 84 46 42 26 24 26 57 110
163 161 167 178 207 162 142 125 102 116 113 103 99 52 12 10 129 130 130 135 139 134 139 132 122 123 123 123 130 123 127 122 126 126 113 92 40 14 8 31 38 54 44
164 181 193 202 172 166 155 155 135 134 132 168 174 161 147 356 7 147 149 151 143 112 127 144 138 136 133 130 134 139 139 149 148 149 145 128 146 269 331 26 8 14 56
186 188 194 200 217 201 174 172 169 179 168 171 181 183 185 197 239 285 123 139 147 139 144 128 122 130 139 144 142 155 168 164 164 161 149 123 341 33 62 23 94 12 55
202 201 192 193 201 211 221 191 200 223 194 186 201 173 168 209 221 184 163 160 151 144 106 86 103 74 139 156 173 181 175 168 174 141 124 133 96 64 22 4 64 47 97
199 205 211 206 198 207 188 227 237 232 224 229 222 197 211 206 189 189 188 180 170 155 73 161 186 193 180 174 183 188 196 197 195 145 142 140 138 132 128 38 92 98 123
209 197 189 207 211 206 210 207 215 243 234 239 239 233 222 212 208 198 196 193 190 182 178 188 186 187 199 195 191 195 200 200 164 159 153 158 142 143 143 139 125 111 94
209 200 193 196 199 200 200 210 215 197 212 220 230 222 228 227 222 211 203 196 201 212 206 201 210 198 200 202 197 202 206 191 196 183 160 170 174 148 148 168 176 150 159
207 210 207 205 194 201 203 198 205 213 211 204 147 260 236 222 219 219 216 214 217 220 220 221 217 201 200 197 195 193 188 198 195 197 185 170 171 154 178 183 156 155 136
214 214 202 203 205 206 195 200 205 211 216 225 211 218 168 196 213 214 217 214 214 225 220 221 203 209 205 196 194 196 197 195 194 197 189 173 177 180 180 174 179 164 186
204 205 204 205 206 206 209 212 215 214 220 220 227 203 190 192 206 207 209 215 220 215 217 216 209 198 196 193 192 193 199 200 197 191 186 183 175 194 195 181 176 170 146
196 193 192 205 204 204 206 207 214 213 216 229 232 212 206 206 215 213 212 213 217 221 211 204 209 206 199 193 191 194 199 201 194 190 188 182 182 184 171 165 166 166 162
198 201 203 207 213 219 217 215 214 215 220 221 220 199 195 209 219 226 226 226 218 215 207 202 206 206 199 198 195 195 196 201 197 184 184 181 181 184 178 182 174 166 181
175 197 210 209 211 218 222 224 224 222 222 223 219 218 206 209 215 223 231 230 225 224 214 215 214 212 200 199 200 201 207 200 186 187 180 180 182 179 182 184 187 189 181
180 185 194 202 202 214 221 222 229 225 223 225 221 220 223 220 220 222 222 221 216 208 209 206 209 213 213 205 204 201 200 197 185 177 181 184 185 184 188 190 181 177 160
185 189 190 195 200 211 213 221 220 224 226 227 230 231 222 219 223 222 228 229 221 221 218 209 214 213 211 212 211 203 198 195 187 180 175 182 185 188 188 188 180 185 182